Year,Month,Day,Hour,Minute,Value (Times are PST for temperature in C)
2009,04,20,00,00,10.20
2009,04,20,00,01,10.20
2009,04,20,00,02,10.10
2009,04,20,00,03,10.10
2009,04,20,00,04,10.10
2009,04,20,00,05,10.10
2009,04,20,00,06,10.10
2009,04,20,00,07,10.10
2009,04,20,00,08,10.10
2009,04,20,00,09,10.10
2009,04,20,00,10,10.10
2009,04,20,00,11,10.10
2009,04,20,00,12,10.10
2009,04,20,00,13,10.10
2009,04,20,01,02,9.70
2009,04,20,01,03,9.70
2009,04,20,01,04,9.70
2009,04,20,01,05,9.70
2009,04,20,01,06,9.70
2009,04,20,01,07,9.60
2009,04,20,01,08,9.60
2009,04,20,01,09,9.60
2009,04,20,01,10,9.60
2009,04,20,01,11,9.60
2009,04,20,01,12,9.60
2009,04,20,01,13,9.50
2009,04,20,01,14,9.50
2009,04,20,01,15,9.50
2009,04,20,01,16,9.50
2009,04,20,01,17,9.50
2009,04,20,01,18,9.50
2009,04,20,01,19,9.50
2009,04,20,01,20,9.50
2009,04,20,01,21,9.50
2009,04,20,01,22,9.50
2009,04,20,01,23,9.50
2009,04,20,01,24,9.40
2009,04,20,01,25,9.40
2009,04,20,01,26,9.40
2009,04,20,01,27,9.40
2009,04,20,01,28,9.40
2009,04,20,01,29,9.40
2009,04,20,01,30,9.40
2009,04,20,01,31,9.40
2009,04,20,01,32,9.30
2009,04,20,01,33,9.30
2009,04,20,01,34,9.30
2009,04,20,01,35,9.30
2009,04,20,01,36,9.30
2009,04,20,01,37,9.30
2009,04,20,01,38,9.30
2009,04,20,01,39,9.30
2009,04,20,01,40,9.30
2009,04,20,01,41,9.30
2009,04,20,01,42,9.30
2009,04,20,01,43,9.30
2009,04,20,01,44,9.30
2009,04,20,01,45,9.30
2009,04,20,01,46,9.30
2009,04,20,01,47,9.30
2009,04,20,01,48,9.30
2009,04,20,01,49,9.30
2009,04,20,01,50,9.30
2009,04,20,01,51,9.30
2009,04,20,01,52,9.40
2009,04,20,01,53,9.40
2009,04,20,01,54,9.40
2009,04,20,01,55,9.40
2009,04,20,01,56,9.40
2009,04,20,01,57,9.40
2009,04,20,01,58,9.40
2009,04,20,01,59,9.40
2009,04,20,02,00,9.40
2009,04,20,02,01,9.40
2009,04,20,02,02,9.40
2009,04,20,02,03,9.40
2009,04,20,02,04,9.40
2009,04,20,02,05,9.40
2009,04,20,02,06,9.40
2009,04,20,02,07,9.40
2009,04,20,02,08,9.30
2009,04,20,02,09,9.30
2009,04,20,02,10,9.30
2009,04,20,02,11,9.30
2009,04,20,02,12,9.30
2009,04,20,02,13,9.30
2009,04,20,02,14,9.30
2009,04,20,02,15,9.30
2009,04,20,02,16,9.30
2009,04,20,02,17,9.30
2009,04,20,02,18,9.30
2009,04,20,02,19,9.30
2009,04,20,02,20,9.30
2009,04,20,02,21,9.30
2009,04,20,02,22,9.30
2009,04,20,02,23,9.30
2009,04,20,02,24,9.30
2009,04,20,02,25,9.30
2009,04,20,02,26,9.30
2009,04,20,02,27,9.30
2009,04,20,02,28,9.30
2009,04,20,02,29,9.30
2009,04,20,02,30,9.30
2009,04,20,02,31,9.30
2009,04,20,02,32,9.30
2009,04,20,02,33,9.30
2009,04,20,02,34,9.30
2009,04,20,02,35,9.30
2009,04,20,02,36,9.20
2009,04,20,02,37,9.20
2009,04,20,02,38,9.20
2009,04,20,02,39,9.20
2009,04,20,02,40,9.20
2009,04,20,02,41,9.20
2009,04,20,02,42,9.20
2009,04,20,02,43,9.20
2009,04,20,02,44,9.20
2009,04,20,02,45,9.20
2009,04,20,02,46,9.20
2009,04,20,02,47,9.20
2009,04,20,02,48,9.20
2009,04,20,02,49,9.20
2009,04,20,02,50,9.20
2009,04,20,02,51,9.20
2009,04,20,02,52,9.20
2009,04,20,02,53,9.20
2009,04,20,02,54,9.20
2009,04,20,02,55,9.20
2009,04,20,02,56,9.20
2009,04,20,02,57,9.20
2009,04,20,02,58,9.20
2009,04,20,02,59,9.20
2009,04,20,03,00,9.20
2009,04,20,03,01,9.20
2009,04,20,03,02,9.20
2009,04,20,03,03,9.20
2009,04,20,03,04,9.20
2009,04,20,03,05,9.20
2009,04,20,03,06,9.20
2009,04,20,03,07,9.20
2009,04,20,03,08,9.20
2009,04,20,03,09,9.20
2009,04,20,03,10,9.20
2009,04,20,03,11,9.10
2009,04,20,03,12,9.10
2009,04,20,03,13,9.10
2009,04,20,03,14,9.10
2009,04,20,03,15,9.10
2009,04,20,03,16,9.10
2009,04,20,03,17,9.10
2009,04,20,03,18,9.10
2009,04,20,03,19,9.10
2009,04,20,03,20,9.10
2009,04,20,03,21,9.10
2009,04,20,03,22,9.10
2009,04,20,03,23,9.10
2009,04,20,03,24,9.10
2009,04,20,03,25,9.10
2009,04,20,03,26,9.10
2009,04,20,03,27,9.10
2009,04,20,03,28,9.10
2009,04,20,03,29,9.10
2009,04,20,03,30,9.10
2009,04,20,03,31,9.10
2009,04,20,03,32,9.10
2009,04,20,03,33,9.10
2009,04,20,03,34,9.10
2009,04,20,03,35,9.10
2009,04,20,03,36,9.10
2009,04,20,03,37,9.10
2009,04,20,03,38,9.10
2009,04,20,03,39,9.10
2009,04,20,03,40,9.10
2009,04,20,03,41,9.10
2009,04,20,03,42,9.10
2009,04,20,03,43,9.10
2009,04,20,03,44,9.10
2009,04,20,03,45,9.10
2009,04,20,03,46,9.10
2009,04,20,03,47,9.10
2009,04,20,03,48,9.10
2009,04,20,03,49,9.00
2009,04,20,03,50,9.00
2009,04,20,03,51,9.00
2009,04,20,03,52,9.00
2009,04,20,03,53,9.00
2009,04,20,03,54,9.00
2009,04,20,03,55,9.00
2009,04,20,03,56,9.00
2009,04,20,03,57,9.00
2009,04,20,03,58,9.00
2009,04,20,03,59,9.00
2009,04,20,04,00,9.00
2009,04,20,04,01,9.00
2009,04,20,04,02,9.00
2009,04,20,04,03,9.00
2009,04,20,04,04,9.00
2009,04,20,04,05,9.00
2009,04,20,04,06,9.00
2009,04,20,04,07,9.00
2009,04,20,04,08,9.00
2009,04,20,04,09,9.00
2009,04,20,04,10,9.00
2009,04,20,04,11,9.00
2009,04,20,04,12,9.00
2009,04,20,04,13,9.00
2009,04,20,04,14,8.90
2009,04,20,04,15,8.90
2009,04,20,04,16,8.90
2009,04,20,04,17,8.90
2009,04,20,04,18,8.90
2009,04,20,04,19,8.90
2009,04,20,04,20,8.90
2009,04,20,04,21,8.90
2009,04,20,04,22,8.90
2009,04,20,04,23,8.90
2009,04,20,04,24,8.90
2009,04,20,04,25,8.90
2009,04,20,04,26,8.90
2009,04,20,04,27,8.90
2009,04,20,04,28,8.90
2009,04,20,04,29,8.90
2009,04,20,04,30,8.90
2009,04,20,04,31,8.90
2009,04,20,04,32,8.90
2009,04,20,04,33,8.90
2009,04,20,04,34,8.90
2009,04,20,04,35,8.90
2009,04,20,04,36,8.90
2009,04,20,04,37,8.90
2009,04,20,04,38,8.90
2009,04,20,04,39,8.90
2009,04,20,04,40,8.90
2009,04,20,04,41,8.90
2009,04,20,04,42,8.90
2009,04,20,04,43,8.90
2009,04,20,04,44,8.90
2009,04,20,04,45,8.90
2009,04,20,04,46,8.90
2009,04,20,04,47,8.90
2009,04,20,04,48,8.90
2009,04,20,04,49,8.90
2009,04,20,04,50,8.90
2009,04,20,04,51,8.90
2009,04,20,04,52,8.80
2009,04,20,04,53,8.80
2009,04,20,04,54,8.80
2009,04,20,04,55,8.80
2009,04,20,04,56,8.80
2009,04,20,04,57,8.80
2009,04,20,04,58,8.80
2009,04,20,04,59,8.80
2009,04,20,05,00,8.80
2009,04,20,05,01,8.80
2009,04,20,05,02,8.80
2009,04,20,05,03,8.80
2009,04,20,05,04,8.80
2009,04,20,05,05,8.70
2009,04,20,05,06,8.70
2009,04,20,05,07,8.70
2009,04,20,05,08,8.70
2009,04,20,05,09,8.70
2009,04,20,05,10,8.70
2009,04,20,05,11,8.70
2009,04,20,05,12,8.70
2009,04,20,05,13,8.70
2009,04,20,05,14,8.70
2009,04,20,05,15,8.70
2009,04,20,05,16,8.70
2009,04,20,05,17,8.70
2009,04,20,05,18,8.70
2009,04,20,05,19,8.70
2009,04,20,05,20,8.70
2009,04,20,05,21,8.70
2009,04,20,05,22,8.70
2009,04,20,05,23,8.70
2009,04,20,05,24,8.70
2009,04,20,05,25,8.70
2009,04,20,05,26,8.70
2009,04,20,05,27,8.70
2009,04,20,05,28,8.70
2009,04,20,05,29,8.70
2009,04,20,05,30,8.70
2009,04,20,05,31,8.70
2009,04,20,05,32,8.70
2009,04,20,05,33,8.70
2009,04,20,05,34,8.70
2009,04,20,05,35,8.70
2009,04,20,05,36,8.70
2009,04,20,05,37,8.70
2009,04,20,05,38,8.70
2009,04,20,05,39,8.70
2009,04,20,05,40,8.70
2009,04,20,05,41,8.70
2009,04,20,05,42,8.70
2009,04,20,05,43,8.70
2009,04,20,05,44,8.70
2009,04,20,05,45,8.70
2009,04,20,05,46,8.70
2009,04,20,05,47,8.70
2009,04,20,05,48,8.70
2009,04,20,05,49,8.70
2009,04,20,05,50,8.70
2009,04,20,05,51,8.70
2009,04,20,05,52,8.70
2009,04,20,05,53,8.60
2009,04,20,05,54,8.60
2009,04,20,05,55,8.60
2009,04,20,05,56,8.60
2009,04,20,05,57,8.60
2009,04,20,05,58,8.60
2009,04,20,05,59,8.60
2009,04,20,06,00,8.60
2009,04,20,06,01,8.60
2009,04,20,06,02,8.60
2009,04,20,06,03,8.60
2009,04,20,06,04,8.60
2009,04,20,06,05,8.60
2009,04,20,06,06,8.60
2009,04,20,06,07,8.60
2009,04,20,06,08,8.60
2009,04,20,06,09,8.60
2009,04,20,06,10,8.60
2009,04,20,06,11,8.60
2009,04,20,06,12,8.60
2009,04,20,06,13,8.60
2009,04,20,06,14,8.60
2009,04,20,06,15,8.60
2009,04,20,06,16,8.60
2009,04,20,06,17,8.60
2009,04,20,06,18,8.60
2009,04,20,06,19,8.60
2009,04,20,06,20,8.60
2009,04,20,06,21,8.60
2009,04,20,06,22,8.60
2009,04,20,06,23,8.60
2009,04,20,06,24,8.60
2009,04,20,06,25,8.60
2009,04,20,06,26,8.60
2009,04,20,06,27,8.60
2009,04,20,06,28,8.60
2009,04,20,06,29,8.60
2009,04,20,06,30,8.60
2009,04,20,06,31,8.60
2009,04,20,06,32,8.60
2009,04,20,06,33,8.60
2009,04,20,06,34,8.60
2009,04,20,06,35,8.50
2009,04,20,06,36,8.50
2009,04,20,06,37,8.50
2009,04,20,06,38,8.50
2009,04,20,06,39,8.50
2009,04,20,06,40,8.50
2009,04,20,06,41,8.50
2009,04,20,06,42,8.50
2009,04,20,06,43,8.50
2009,04,20,06,44,8.50
2009,04,20,06,45,8.50
2009,04,20,06,46,8.50
2009,04,20,06,47,8.50
2009,04,20,06,48,8.50
2009,04,20,06,49,8.50
2009,04,20,06,50,8.60
2009,04,20,06,51,8.60
2009,04,20,06,52,8.60
2009,04,20,06,53,8.60
2009,04,20,06,54,8.60
2009,04,20,06,55,8.60
2009,04,20,06,56,8.60
2009,04,20,06,57,8.60
2009,04,20,06,58,8.60
2009,04,20,06,59,8.60
2009,04,20,07,00,8.60
2009,04,20,07,01,8.60
2009,04,20,07,02,8.60
2009,04,20,07,03,8.60
2009,04,20,07,04,8.60
2009,04,20,07,05,8.60
2009,04,20,07,06,8.60
2009,04,20,07,07,8.60
2009,04,20,07,08,8.60
2009,04,20,07,09,8.60
2009,04,20,07,10,8.60
2009,04,20,07,11,8.60
2009,04,20,07,12,8.70
2009,04,20,07,13,8.70
2009,04,20,07,14,8.70
2009,04,20,07,15,8.70
2009,04,20,07,16,8.70
2009,04,20,07,17,8.70
2009,04,20,07,18,8.70
2009,04,20,07,19,8.70
2009,04,20,07,20,8.70
2009,04,20,07,21,8.70
2009,04,20,07,22,8.70
2009,04,20,07,23,8.70
2009,04,20,07,24,8.70
2009,04,20,07,25,8.70
2009,04,20,07,26,8.70
2009,04,20,07,27,8.70
2009,04,20,07,28,8.70
2009,04,20,07,29,8.70
2009,04,20,07,30,8.70
2009,04,20,07,31,8.80
2009,04,20,07,32,8.80
2009,04,20,07,33,8.80
2009,04,20,07,34,8.90
2009,04,20,07,35,8.90
2009,04,20,07,36,8.90
2009,04,20,07,37,8.90
2009,04,20,07,38,9.00
2009,04,20,07,39,9.00
2009,04,20,07,40,9.00
2009,04,20,07,41,9.10
2009,04,20,07,42,9.10
2009,04,20,07,43,9.10
2009,04,20,07,44,9.20
2009,04,20,07,45,9.20
2009,04,20,07,46,9.20
2009,04,20,07,47,9.20
2009,04,20,07,48,9.20
2009,04,20,07,49,9.20
2009,04,20,07,50,9.20
2009,04,20,07,51,9.30
2009,04,20,07,52,9.30
2009,04,20,07,53,9.30
2009,04,20,07,54,9.40
2009,04,20,07,55,9.40
2009,04,20,07,56,9.40
2009,04,20,07,57,9.40
2009,04,20,07,58,9.40
2009,04,20,07,59,9.40
2009,04,20,08,00,9.50
2009,04,20,08,01,9.50
2009,04,20,08,02,9.50
2009,04,20,08,03,9.50
2009,04,20,08,04,9.60
2009,04,20,08,05,9.60
2009,04,20,08,06,9.60
2009,04,20,08,07,9.70
2009,04,20,08,08,9.70
2009,04,20,08,09,9.70
2009,04,20,08,10,9.70
2009,04,20,08,11,9.80
2009,04,20,08,12,9.80
2009,04,20,08,13,9.80
2009,04,20,08,14,9.90
2009,04,20,08,15,9.90
2009,04,20,08,16,9.90
2009,04,20,08,17,9.90
2009,04,20,08,18,10.00
2009,04,20,08,19,10.10
2009,04,20,08,20,10.10
2009,04,20,08,21,10.10
2009,04,20,08,22,10.10
2009,04,20,08,23,10.10
2009,04,20,08,24,10.20
2009,04,20,08,25,10.20
2009,04,20,08,26,10.20
2009,04,20,08,27,10.30
2009,04,20,08,28,10.30
2009,04,20,08,29,10.30
2009,04,20,08,30,10.40
2009,04,20,08,31,10.40
2009,04,20,08,32,10.40
2009,04,20,08,33,10.50
2009,04,20,08,34,10.60
2009,04,20,08,35,10.60
2009,04,20,08,36,10.60
2009,04,20,08,37,10.70
2009,04,20,08,38,10.70
2009,04,20,08,39,10.70
2009,04,20,08,40,10.70
2009,04,20,08,41,10.70
2009,04,20,08,42,10.60
2009,04,20,08,43,10.60
2009,04,20,08,44,10.60
2009,04,20,08,45,10.60
2009,04,20,08,46,10.60
2009,04,20,08,47,10.60
2009,04,20,08,48,10.60
2009,04,20,08,49,10.50
2009,04,20,08,50,10.40
2009,04,20,08,51,10.40
2009,04,20,08,52,10.40
2009,04,20,08,53,10.40
2009,04,20,08,54,10.40
2009,04,20,08,55,10.40
2009,04,20,08,56,10.40
2009,04,20,08,57,10.40
2009,04,20,08,58,10.40
2009,04,20,08,59,10.40
2009,04,20,09,00,10.40
2009,04,20,09,01,10.40
2009,04,20,09,02,10.50
2009,04,20,09,03,10.60
2009,04,20,09,04,10.60
2009,04,20,09,05,10.60
2009,04,20,09,06,10.60
2009,04,20,09,07,10.60
2009,04,20,09,08,10.60
2009,04,20,09,09,10.60
2009,04,20,09,10,10.60
2009,04,20,09,11,10.60
2009,04,20,09,12,10.70
2009,04,20,09,13,10.70
2009,04,20,09,14,10.70
2009,04,20,09,15,10.80
2009,04,20,09,16,10.80
2009,04,20,09,17,10.80
2009,04,20,09,18,10.80
2009,04,20,09,19,10.80
2009,04,20,09,20,10.80
2009,04,20,09,21,10.80
2009,04,20,09,22,10.90
2009,04,20,09,23,10.90
2009,04,20,09,24,10.90
2009,04,20,09,25,11.00
2009,04,20,09,26,11.10
2009,04,20,09,27,11.10
2009,04,20,09,28,11.10
2009,04,20,09,29,11.20
2009,04,20,09,30,11.20
2009,04,20,09,31,11.30
2009,04,20,09,32,11.30
2009,04,20,09,33,11.40
2009,04,20,09,34,11.40
2009,04,20,09,35,11.40
2009,04,20,09,36,11.40
2009,04,20,09,37,11.40
2009,04,20,09,38,11.40
2009,04,20,09,39,11.40
2009,04,20,09,40,11.40
2009,04,20,09,41,11.40
2009,04,20,09,42,11.60
2009,04,20,09,43,11.60
2009,04,20,09,44,11.60
2009,04,20,09,45,11.60
2009,04,20,09,46,11.70
2009,04,20,09,47,11.80
2009,04,20,09,48,11.80
2009,04,20,09,49,11.90
2009,04,20,09,50,12.00
2009,04,20,09,51,12.10
2009,04,20,09,52,12.10
2009,04,20,09,53,12.20
2009,04,20,09,54,12.30
2009,04,20,09,55,12.30
2009,04,20,09,56,12.40
2009,04,20,09,57,12.40
2009,04,20,09,58,12.50
2009,04,20,09,59,12.50
2009,04,20,10,00,12.60
2009,04,20,10,01,12.60
2009,04,20,10,02,12.60
2009,04,20,10,03,12.60
2009,04,20,10,04,12.60
2009,04,20,10,05,12.70
2009,04,20,10,06,12.70
2009,04,20,10,07,12.80
2009,04,20,10,08,12.80
2009,04,20,10,09,12.80
2009,04,20,10,10,12.80
2009,04,20,10,11,12.80
2009,04,20,10,12,12.80
2009,04,20,10,13,12.80
2009,04,20,10,14,12.80
2009,04,20,10,15,12.80
2009,04,20,10,16,12.80
2009,04,20,10,17,12.80
2009,04,20,10,18,12.80
2009,04,20,10,19,12.80
2009,04,20,10,20,12.80
2009,04,20,10,21,12.70
2009,04,20,10,22,12.70
2009,04,20,10,23,12.50
2009,04,20,10,24,12.50
2009,04,20,10,25,12.40
2009,04,20,10,26,12.30
2009,04,20,10,27,12.20
2009,04,20,10,28,12.20
2009,04,20,10,29,12.10
2009,04,20,10,30,12.00
2009,04,20,10,31,12.00
2009,04,20,10,32,12.00
2009,04,20,10,33,11.90
2009,04,20,10,34,11.90
2009,04,20,10,35,11.80
2009,04,20,10,36,11.80
2009,04,20,10,37,11.80
2009,04,20,10,38,11.70
2009,04,20,10,39,11.60
2009,04,20,10,40,11.60
2009,04,20,10,41,11.40
2009,04,20,10,42,11.40
2009,04,20,10,43,11.30
2009,04,20,10,44,11.30
2009,04,20,10,45,11.20
2009,04,20,10,46,11.20
2009,04,20,10,47,11.20
2009,04,20,10,48,11.20
2009,04,20,10,49,11.20
2009,04,20,10,50,11.10
2009,04,20,10,51,11.20
2009,04,20,10,52,11.20
2009,04,20,10,53,11.20
2009,04,20,10,54,11.20
2009,04,20,10,55,11.20
2009,04,20,10,56,11.20
2009,04,20,10,57,11.20
2009,04,20,10,58,11.20
2009,04,20,10,59,11.10
2009,04,20,11,00,11.20
2009,04,20,11,01,11.20
2009,04,20,11,02,11.20
2009,04,20,11,03,11.30
2009,04,20,11,04,11.30
2009,04,20,11,05,11.30
2009,04,20,11,06,11.30
2009,04,20,11,07,11.40
2009,04,20,11,08,11.40
2009,04,20,11,09,11.40
2009,04,20,11,10,11.40
2009,04,20,11,11,11.50
2009,04,20,11,12,11.60
2009,04,20,11,13,11.60
2009,04,20,11,14,11.70
2009,04,20,11,15,11.80
2009,04,20,11,16,11.80
2009,04,20,11,17,11.90
2009,04,20,11,18,12.00
2009,04,20,11,19,12.00
2009,04,20,11,20,12.10
2009,04,20,11,21,12.10
2009,04,20,11,22,12.10
2009,04,20,11,23,12.20
2009,04,20,11,24,12.20
2009,04,20,11,25,12.30
2009,04,20,11,26,12.30
2009,04,20,11,27,12.30
2009,04,20,11,28,12.40
2009,04,20,11,29,12.50
2009,04,20,11,30,12.50
2009,04,20,11,31,12.60
2009,04,20,11,32,12.60
2009,04,20,11,33,12.70
2009,04,20,11,34,12.80
2009,04,20,11,35,12.90
2009,04,20,11,36,13.00
2009,04,20,11,37,13.00
2009,04,20,11,38,13.10
2009,04,20,11,39,13.20
2009,04,20,11,40,13.30
2009,04,20,11,41,13.30
2009,04,20,11,42,13.30
2009,04,20,11,43,13.30
2009,04,20,11,44,13.40
2009,04,20,11,45,13.40
2009,04,20,11,46,13.50
2009,04,20,11,47,13.40
2009,04,20,11,48,13.30
2009,04,20,11,49,13.30
2009,04,20,11,50,13.30
2009,04,20,11,51,13.30
2009,04,20,11,52,13.20
2009,04,20,11,53,13.20
2009,04,20,11,54,13.20
2009,04,20,11,55,13.20
2009,04,20,11,56,13.30
2009,04,20,11,57,13.30
2009,04,20,11,58,13.30
2009,04,20,11,59,13.30
2009,04,20,12,00,13.30
2009,04,20,12,01,13.30
2009,04,20,12,02,13.40
2009,04,20,12,03,13.50
2009,04,20,12,04,13.50
2009,04,20,12,05,13.60
2009,04,20,12,06,13.60
2009,04,20,12,07,13.70
2009,04,20,12,08,13.70
2009,04,20,12,09,13.70
2009,04,20,12,10,13.70
2009,04,20,12,11,13.70
2009,04,20,12,12,13.80
2009,04,20,12,13,13.80
2009,04,20,12,14,13.80
2009,04,20,12,15,13.80
2009,04,20,12,16,13.80
2009,04,20,12,17,13.80
2009,04,20,12,18,13.70
2009,04,20,12,19,13.70
2009,04,20,12,20,13.70
2009,04,20,12,21,13.60
2009,04,20,12,22,13.60
2009,04,20,12,23,13.60
2009,04,20,12,24,13.60
2009,04,20,12,25,13.60
2009,04,20,12,26,13.60
2009,04,20,12,27,13.60
2009,04,20,12,28,13.60
2009,04,20,12,29,13.50
2009,04,20,12,30,13.50
2009,04,20,12,31,13.40
2009,04,20,12,32,13.30
2009,04,20,12,33,13.30
2009,04,20,12,34,13.30
2009,04,20,12,35,13.30
2009,04,20,12,36,13.20
2009,04,20,12,37,13.20
2009,04,20,12,38,13.20
2009,04,20,12,39,13.30
2009,04,20,12,40,13.30
2009,04,20,12,41,13.30
2009,04,20,12,42,13.30
2009,04,20,12,43,13.30
2009,04,20,12,44,13.30
2009,04,20,12,45,13.30
2009,04,20,12,46,13.30
2009,04,20,12,47,13.40
2009,04,20,12,48,13.40
2009,04,20,12,49,13.40
2009,04,20,12,50,13.50
2009,04,20,12,51,13.50
2009,04,20,12,52,13.50
2009,04,20,12,53,13.50
2009,04,20,12,54,13.60
2009,04,20,12,55,13.60
2009,04,20,12,56,13.70
2009,04,20,12,57,13.70
2009,04,20,12,58,13.70
2009,04,20,12,59,13.70
2009,04,20,13,00,13.80
2009,04,20,13,01,13.80
2009,04,20,13,02,13.90
2009,04,20,13,03,13.90
2009,04,20,13,04,13.90
2009,04,20,13,05,13.90
2009,04,20,13,06,13.90
2009,04,20,13,07,13.90
2009,04,20,13,08,13.90
2009,04,20,13,09,13.90
2009,04,20,13,10,13.90
2009,04,20,13,11,13.80
2009,04,20,13,12,13.80
2009,04,20,13,13,13.80
2009,04,20,13,14,13.80
2009,04,20,13,15,13.80
2009,04,20,13,16,13.80
2009,04,20,13,17,13.80
2009,04,20,13,18,13.80
2009,04,20,13,19,13.80
2009,04,20,13,20,13.80
2009,04,20,13,21,13.80
2009,04,20,13,22,13.70
2009,04,20,13,23,13.80
2009,04,20,13,24,13.80
2009,04,20,13,25,13.80
2009,04,20,13,26,13.80
2009,04,20,13,27,13.80
2009,04,20,13,28,13.80
2009,04,20,13,29,13.80
2009,04,20,13,30,13.90
2009,04,20,13,31,13.90
2009,04,20,13,32,13.90
2009,04,20,13,33,13.90
2009,04,20,13,34,13.90
2009,04,20,13,35,13.90
2009,04,20,13,36,14.00
2009,04,20,13,37,14.00
2009,04,20,13,38,14.10
2009,04,20,13,39,14.10
2009,04,20,13,40,14.20
2009,04,20,13,41,14.30
2009,04,20,13,42,14.30
2009,04,20,13,43,14.40
2009,04,20,13,44,14.50
2009,04,20,13,45,14.50
2009,04,20,13,46,14.60
2009,04,20,13,47,14.60
2009,04,20,13,48,14.60
2009,04,20,13,49,14.60
2009,04,20,13,50,14.60
2009,04,20,13,51,14.60
2009,04,20,13,52,14.70
2009,04,20,13,53,14.70
2009,04,20,13,54,14.80
2009,04,20,13,55,14.80
2009,04,20,13,56,14.80
2009,04,20,13,57,14.80
2009,04,20,13,58,14.90
2009,04,20,13,59,14.90
2009,04,20,14,00,14.90
2009,04,20,14,01,14.90
2009,04,20,14,02,14.90
2009,04,20,14,03,14.90
2009,04,20,14,04,14.90
2009,04,20,14,05,14.90
2009,04,20,14,06,14.90
2009,04,20,14,07,14.90
2009,04,20,14,08,14.90
2009,04,20,14,09,14.90
2009,04,20,14,10,14.90
2009,04,20,14,11,14.90
2009,04,20,14,12,14.90
2009,04,20,14,13,14.90
2009,04,20,14,14,14.90
2009,04,20,14,15,14.90
2009,04,20,14,16,14.90
2009,04,20,14,17,15.00
2009,04,20,14,18,15.10
2009,04,20,14,19,15.10
2009,04,20,14,20,15.20
2009,04,20,14,21,15.20
2009,04,20,14,22,15.30
2009,04,20,14,23,15.30
2009,04,20,14,24,15.30
2009,04,20,14,25,15.30
2009,04,20,14,26,15.20
2009,04,20,14,27,15.20
2009,04,20,14,28,15.20
2009,04,20,14,29,15.20
2009,04,20,14,30,15.20
2009,04,20,14,31,15.30
2009,04,20,14,32,15.30
2009,04,20,14,33,15.40
2009,04,20,14,34,15.50
2009,04,20,14,35,15.50
2009,04,20,14,36,15.60
2009,04,20,14,37,15.70
2009,04,20,14,38,15.80
2009,04,20,14,39,15.80
2009,04,20,14,40,15.80
2009,04,20,14,41,15.90
2009,04,20,14,42,15.90
2009,04,20,14,43,15.90
2009,04,20,14,44,15.90
2009,04,20,14,45,16.00
2009,04,20,14,46,16.10
2009,04,20,14,47,16.10
2009,04,20,14,48,16.10
2009,04,20,14,49,16.10
2009,04,20,14,50,16.10
2009,04,20,14,51,16.10
2009,04,20,14,52,16.20
2009,04,20,14,53,16.20
2009,04,20,14,54,16.10
2009,04,20,14,55,16.10
2009,04,20,14,56,16.10
2009,04,20,14,57,16.10
2009,04,20,14,58,16.10
2009,04,20,14,59,16.10
2009,04,20,15,00,16.10
2009,04,20,15,01,16.20
2009,04,20,15,02,16.20
2009,04,20,15,03,16.20
2009,04,20,15,04,16.20
2009,04,20,15,05,16.30
2009,04,20,15,06,16.40
2009,04,20,15,07,16.30
2009,04,20,15,08,16.30
2009,04,20,15,09,16.30
2009,04,20,15,10,16.30
2009,04,20,15,11,16.20
2009,04,20,15,12,16.10
2009,04,20,15,13,16.10
2009,04,20,15,14,16.20
2009,04,20,15,15,16.20
2009,04,20,15,16,16.40
2009,04,20,15,17,16.40
2009,04,20,15,18,16.60
2009,04,20,15,19,16.60
2009,04,20,15,20,16.60
2009,04,20,15,21,16.60
2009,04,20,15,22,16.60
2009,04,20,15,23,16.60
2009,04,20,15,24,16.50
2009,04,20,15,25,16.40
2009,04,20,15,26,16.20
2009,04,20,15,27,16.10
2009,04,20,15,28,15.90
2009,04,20,15,29,15.60
2009,04,20,15,30,15.40
2009,04,20,15,31,15.10
2009,04,20,15,32,15.00
2009,04,20,15,33,14.80
2009,04,20,15,34,14.80
2009,04,20,15,35,14.80
2009,04,20,15,36,14.60
2009,04,20,15,37,14.50
2009,04,20,15,38,14.40
2009,04,20,15,39,14.40
2009,04,20,15,40,14.50
2009,04,20,15,41,14.60
2009,04,20,15,42,14.60
2009,04,20,15,43,14.70
2009,04,20,15,44,14.70
2009,04,20,15,45,14.70
2009,04,20,15,46,14.80
2009,04,20,15,47,14.80
2009,04,20,15,48,14.80
2009,04,20,15,49,14.80
2009,04,20,15,50,14.80
2009,04,20,15,51,14.90
2009,04,20,15,52,15.00
2009,04,20,15,53,15.10
2009,04,20,15,54,15.00
2009,04,20,15,55,15.00
2009,04,20,15,56,15.00
2009,04,20,15,57,14.90
2009,04,20,15,58,14.80
2009,04,20,15,59,14.80
2009,04,20,16,00,14.60
2009,04,20,16,01,14.60
2009,04,20,16,02,14.50
2009,04,20,16,03,14.50
2009,04,20,16,04,14.40
2009,04,20,16,05,14.40
2009,04,20,16,06,14.30
2009,04,20,16,07,14.20
2009,04,20,16,08,14.10
2009,04,20,16,09,14.00
2009,04,20,16,10,14.00
2009,04,20,16,11,14.10
2009,04,20,16,12,14.10
2009,04,20,16,13,14.10
2009,04,20,16,14,14.10
2009,04,20,16,15,14.20
2009,04,20,16,16,14.20
2009,04,20,16,17,14.30
2009,04,20,16,18,14.40
2009,04,20,16,19,14.40
2009,04,20,16,20,14.30
2009,04,20,16,21,14.30
2009,04,20,16,22,14.30
2009,04,20,16,23,14.30
2009,04,20,16,24,14.40
2009,04,20,16,25,14.60
2009,04,20,16,26,14.70
2009,04,20,16,27,14.80
2009,04,20,16,28,14.90
2009,04,20,16,29,14.90
2009,04,20,16,30,14.80
2009,04,20,16,31,14.70
2009,04,20,16,32,14.50
2009,04,20,16,33,14.20
2009,04,20,16,34,14.10
2009,04,20,16,35,13.90
2009,04,20,16,36,13.80
2009,04,20,16,37,13.80
2009,04,20,16,38,13.80
2009,04,20,16,39,13.90
2009,04,20,16,40,14.00
2009,04,20,16,41,14.00
2009,04,20,16,42,14.10
2009,04,20,16,43,14.20
2009,04,20,16,44,14.20
2009,04,20,16,45,14.30
2009,04,20,16,46,14.40
2009,04,20,16,47,14.50
2009,04,20,16,48,14.50
2009,04,20,16,49,14.60
2009,04,20,16,50,14.70
2009,04,20,16,51,14.80
2009,04,20,16,52,14.90
2009,04,20,16,53,14.90
2009,04,20,16,54,15.00
2009,04,20,16,55,15.00
2009,04,20,16,56,14.90
2009,04,20,16,57,14.90
2009,04,20,16,58,14.90
2009,04,20,16,59,14.90
2009,04,20,17,00,14.80
2009,04,20,17,01,14.70
2009,04,20,17,02,14.60
2009,04,20,17,03,14.50
2009,04,20,17,04,14.50
2009,04,20,17,05,14.40
2009,04,20,17,06,14.30
2009,04,20,17,07,14.10
2009,04,20,17,08,14.00
2009,04,20,17,09,13.90
2009,04,20,17,10,13.80
2009,04,20,17,11,13.80
2009,04,20,17,12,13.90
2009,04,20,17,13,13.90
2009,04,20,17,14,13.80
2009,04,20,17,15,13.80
2009,04,20,17,16,13.70
2009,04,20,17,17,13.70
2009,04,20,17,18,13.70
2009,04,20,17,19,13.70
2009,04,20,17,20,13.60
2009,04,20,17,21,13.60
2009,04,20,17,22,13.60
2009,04,20,17,23,13.60
2009,04,20,17,24,13.60
2009,04,20,17,25,13.60
2009,04,20,17,26,13.60
2009,04,20,17,27,13.60
2009,04,20,17,28,13.60
2009,04,20,17,29,13.60
2009,04,20,17,30,13.60
2009,04,20,17,31,13.60
2009,04,20,17,32,13.60
2009,04,20,17,33,13.60
2009,04,20,17,34,13.70
2009,04,20,17,35,13.70
2009,04,20,17,36,13.70
2009,04,20,17,37,13.70
2009,04,20,17,38,13.70
2009,04,20,17,39,13.70
2009,04,20,17,40,13.70
2009,04,20,17,41,13.70
2009,04,20,17,42,13.70
2009,04,20,17,43,13.70
2009,04,20,17,44,13.70
2009,04,20,17,45,13.80
2009,04,20,17,46,13.80
2009,04,20,17,47,13.80
2009,04,20,17,48,13.90
2009,04,20,17,49,13.90
2009,04,20,17,50,14.00
2009,04,20,17,51,14.00
2009,04,20,17,52,14.00
2009,04,20,17,53,14.10
2009,04,20,17,54,14.20
2009,04,20,17,55,14.20
2009,04,20,17,56,14.20
2009,04,20,17,57,14.20
2009,04,20,17,58,14.20
2009,04,20,17,59,14.20
2009,04,20,18,00,14.20
2009,04,20,18,01,14.20
2009,04,20,18,02,14.20
2009,04,20,18,03,14.30
2009,04,20,18,04,14.30
2009,04,20,18,05,14.30
2009,04,20,18,06,14.30
2009,04,20,18,07,14.40
2009,04,20,18,08,14.40
2009,04,20,18,09,14.40
2009,04,20,18,10,14.40
2009,04,20,18,11,14.50
2009,04,20,18,12,14.50
2009,04,20,18,13,14.50
2009,04,20,18,14,14.50
2009,04,20,18,15,14.60
2009,04,20,18,16,14.60
2009,04,20,18,17,14.60
2009,04,20,18,18,14.70
2009,04,20,18,19,14.70
2009,04,20,18,20,14.80
2009,04,20,18,21,14.80
2009,04,20,18,22,14.80
2009,04,20,18,23,14.80
2009,04,20,18,24,14.80
2009,04,20,18,25,14.80
2009,04,20,18,26,14.80